Flag for Belgium Weather past 2 weeks in Eupen, Belgium

Now
54 °F

Passing clouds.


Feels Like: 53 °F
Forecast: 38 / 60 °F
Wind: 6 mph from Northwest

Location: Spa / La Sauveniere

Current Time: Sep 22, 2014 at 5:13:10 PM

Latest Report: Sep 22, 2014 at 4:00 PM


Visibility: 8 mi

Pressure: 30.14 "Hg

Humidity: 69%

Dew point: 44 °F

Location of EupenLocation

Historic Weather in Eupen — Graph

°F

Eupen temperature yesterday

Maximum temperature yesterday: 56 °F (at 10:00 AM)
Minimum temperature yesterday: 49 °F (at 11:00 PM)
Average temperature yesterday: 54 °F

Past Weeks' High & Low Weather Summary

 TemperatureHumidityPressure
High73 °F (Sep 17, 5:00 PM)100% (Sep 11, 7:00 AM)30.27 "Hg (Sep 11, 7:00 AM)
Low46 °F (Sep 9, 6:00 AM)51% (Sep 17, 4:00 PM)29.80 "Hg (Sep 18, 5:00 PM)
Average58 °F85%30.06 "Hg
* Reported Sep 7 3:00 PM — Sep 22 3:00 PM, Eupen, Weather by CustomWeather, © 2014

Note: Actual official high and low records may vary slightly from our data, if they occured in-between our weather recording intervals... More about our weather records

Advertising

Eupen weather history for previous 24 hours

 ConditionsComfort  
Time TempWeatherWind HumidityBarometerVisibility
3:00 PM
Sep 22
55 °FPassing clouds.6 mph70%30.14 "Hg8 mi
2:00 PM54 °FPartly sunny.8 mph72%30.15 "Hg7 mi
1:00 PM53 °FPartly sunny.6 mph75%30.15 "HgN/A
12:00 PM51 °FOvercast.6 mph82%30.17 "HgN/A
11:00 AM50 °FLow clouds.5 mph90%30.18 "HgN/A
10:00 AM50 °FFog.N/A91%30.18 "Hg3 mi
9:00 AM49 °FFog.N/A93%30.18 "Hg3 mi
8:00 AM49 °FFog.N/A97%30.18 "Hg1 mi
7:00 AM48 °FLow clouds.N/A98%30.19 "Hg1 mi
6:00 AM49 °FDense fog.N/A99%30.19 "Hg1 mi
5:00 AM48 °FFog.N/A97%30.19 "Hg2 mi
4:00 AM49 °FLow clouds.N/A97%30.20 "Hg1 mi
3:00 AM49 °FDense fog.N/A98%30.20 "Hg1 mi
2:00 AM49 °FFog.N/A98%30.19 "Hg1 mi
1:00 AM49 °FFog.N/A96%30.19 "Hg2 mi
12:00 AM49 °FFog.N/A95%30.19 "Hg2 mi
11:00 PM
Sep 21
49 °FPassing clouds.N/A92%30.19 "HgN/A
10:00 PM50 °FClear.N/A89%30.17 "Hg7 mi
9:00 PM52 °FPassing clouds.N/A87%30.15 "Hg14 mi
8:00 PM53 °FOvercast.N/A81%30.13 "Hg17 mi
7:00 PM54 °FOvercast.N/A81%30.11 "Hg22 mi
6:00 PM56 °FPassing clouds.N/A88%30.09 "Hg14 mi
5:00 PM55 °FOvercast.N/A89%30.08 "Hg12 mi
Weather by CustomWeather, © 2014

See weather overviewHow to use our weather pages